Time,TemperatureF,DewpointF,PressureIn,WindDirection,WindDirectionDegrees,WindSpeedMPH,WindSpeedGustMPH,Humidity,HourlyPrecipIn,Conditions,Clouds,dailyrainin,SoftwareType,DateUTC
2013-04-18 00:00:00,51.8,37.4,30.65,North,0,0.0,-999.9,58,-99.99,,,-99.99,,2013-04-18 04:00:00,
2013-04-18 00:02:00,51.8,39.2,30.66,North,7,0.0,-999.9,62,-99.99,,,-99.99,,2013-04-18 04:02:00,
2013-04-18 00:04:00,51.8,39.2,30.66,North,7,0.0,-999.9,62,-99.99,,,-99.99,,2013-04-18 04:04:00,
2013-04-18 00:06:00,51.8,39.2,30.66,North,7,0.0,-999.9,62,-99.99,,,-99.99,,2013-04-18 04:06:00,
2013-04-18 00:08:00,51.8,39.2,30.66,North,7,0.0,-999.9,62,-99.99,,,-99.99,,2013-04-18 04:08:00,
2013-04-18 00:12:00,51.8,39.2,30.66,North,0,0.0,-999.9,62,-99.99,,,-99.99,,2013-04-18 04:12:00,
2013-04-18 00:18:00,51.8,39.2,30.66,North,0,0.0,-999.9,62,-99.99,,,-99.99,,2013-04-18 04:18:00,
2013-04-18 00:24:00,51.8,39.2,30.66,NNE,17,2.3,-999.9,62,-99.99,,,-99.99,,2013-04-18 04:24:00,
2013-04-18 00:30:00,51.8,39.2,30.66,NNE,17,2.3,-999.9,62,-99.99,,,-99.99,,2013-04-18 04:30:00,
2013-04-18 00:36:00,51.8,39.2,30.66,North,0,0.0,-999.9,62,-99.99,,,-99.99,,2013-04-18 04:36:00,
2013-04-18 00:42:00,50.0,37.4,30.67,North,0,0.0,-999.9,62,-99.99,,,-99.99,,2013-04-18 04:42:00,
2013-04-18 00:48:00,50.0,37.4,30.67,North,0,0.0,-999.9,62,-99.99,,,-99.99,,2013-04-18 04:48:00,
2013-04-18 00:54:00,50.0,37.4,30.67,NNE,24,3.5,-999.9,62,-99.99,,,-99.99,,2013-04-18 04:54:00,
2013-04-18 01:00:00,50.0,37.4,30.67,NNE,24,3.5,-999.9,62,-99.99,,,-99.99,,2013-04-18 05:00:00,
2013-04-18 01:06:00,50.0,37.4,30.67,North,0,0.0,-999.9,62,-99.99,,,-99.99,,2013-04-18 05:06:00,
2013-04-18 01:22:00,48.2,39.2,30.66,NE,47,0.0,-999.9,71,-99.99,,,-99.99,,2013-04-18 05:22:00,
2013-04-18 01:28:00,48.2,39.2,30.66,NE,47,0.0,-999.9,71,-99.99,,,-99.99,,2013-04-18 05:28:00,
2013-04-18 01:42:00,48.2,39.2,30.66,North,0,0.0,-999.9,71,-99.99,,,-99.99,,2013-04-18 05:42:00,
2013-04-18 01:48:00,48.2,39.2,30.66,North,0,0.0,-999.9,71,-99.99,,,-99.99,,2013-04-18 05:48:00,
2013-04-18 02:12:00,48.2,39.2,30.66,North,0,0.0,-999.9,71,-99.99,,,-99.99,,2013-04-18 06:12:00,
2013-04-18 02:18:00,48.2,39.2,30.66,North,0,0.0,-999.9,71,-99.99,,,-99.99,,2013-04-18 06:18:00,
2013-04-18 02:24:00,46.4,39.2,30.65,North,0,0.0,-999.9,76,-99.99,,,-99.99,,2013-04-18 06:24:00,
2013-04-18 02:30:00,46.4,39.2,30.65,North,0,0.0,-999.9,76,-99.99,,,-99.99,,2013-04-18 06:30:00,
2013-04-18 02:36:00,46.4,39.2,30.65,North,0,0.0,-999.9,76,-99.99,,,-99.99,,2013-04-18 06:36:00,
2013-04-18 02:42:00,46.4,39.2,30.66,NE,43,3.5,-999.9,76,-99.99,,,-99.99,,2013-04-18 06:42:00,
2013-04-18 02:48:00,46.4,39.2,30.66,NE,43,3.5,-999.9,76,-99.99,,,-99.99,,2013-04-18 06:48:00,
2013-04-18 02:54:00,46.4,39.2,30.66,NNE,12,5.8,-999.9,76,-99.99,,,-99.99,,2013-04-18 06:54:00,
2013-04-18 03:00:00,46.4,39.2,30.66,NNE,12,5.8,-999.9,76,-99.99,,,-99.99,,2013-04-18 07:00:00,
2013-04-18 03:06:00,46.4,39.2,30.66,North,0,0.0,-999.9,76,-99.99,,,-99.99,,2013-04-18 07:06:00,
2013-04-18 03:12:00,46.4,39.2,30.67,NNW,346,1.2,-999.9,76,-99.99,,,-99.99,,2013-04-18 07:12:00,
2013-04-18 03:18:00,46.4,39.2,30.67,NNW,346,1.2,-999.9,76,-99.99,,,-99.99,,2013-04-18 07:18:00,
2013-04-18 03:24:00,46.4,37.4,30.67,North,350,1.2,-999.9,71,-99.99,,,-99.99,,2013-04-18 07:24:00,
2013-04-18 03:30:00,46.4,37.4,30.67,North,350,1.2,-999.9,71,-99.99,,,-99.99,,2013-04-18 07:30:00,
2013-04-18 03:36:00,48.2,39.2,30.67,NNE,15,0.0,-999.9,71,-99.99,,,-99.99,,2013-04-18 07:36:00,
2013-04-18 03:42:00,48.2,39.2,30.67,ENE,68,1.2,-999.9,71,-99.99,,,-99.99,,2013-04-18 07:42:00,
2013-04-18 03:48:00,48.2,39.2,30.67,ENE,68,1.2,-999.9,71,-99.99,,,-99.99,,2013-04-18 07:48:00,
2013-04-18 03:54:00,46.4,39.2,30.66,North,0,0.0,-999.9,76,-99.99,,,-99.99,,2013-04-18 07:54:00,
2013-04-18 04:00:00,46.4,39.2,30.66,North,0,0.0,-999.9,76,-99.99,,,-99.99,,2013-04-18 08:00:00,
2013-04-18 04:12:00,44.6,39.2,30.67,East,84,0.0,-999.9,81,-99.99,,,-99.99,,2013-04-18 08:12:00,
2013-04-18 04:18:00,44.6,39.2,30.67,East,84,0.0,-999.9,81,-99.99,,,-99.99,,2013-04-18 08:18:00,
2013-04-18 04:24:00,44.6,39.2,30.67,North,0,0.0,-999.9,81,-99.99,,,-99.99,,2013-04-18 08:24:00,
2013-04-18 04:30:00,44.6,39.2,30.67,North,0,0.0,-999.9,81,-99.99,,,-99.99,,2013-04-18 08:30:00,
2013-04-18 04:36:00,44.6,39.2,30.67,North,0,0.0,-999.9,81,-99.99,,,-99.99,,2013-04-18 08:36:00,
2013-04-18 04:42:00,44.6,39.2,30.67,North,0,0.0,-999.9,81,-99.99,,,-99.99,,2013-04-18 08:42:00,
2013-04-18 04:48:00,44.6,39.2,30.67,North,0,0.0,-999.9,81,-99.99,,,-99.99,,2013-04-18 08:48:00,
2013-04-18 04:54:00,44.6,39.2,30.67,North,0,0.0,-999.9,81,-99.99,,,-99.99,,2013-04-18 08:54:00,
2013-04-18 05:00:00,44.6,39.2,30.67,North,0,0.0,-999.9,81,-99.99,,,-99.99,,2013-04-18 09:00:00,
2013-04-18 05:06:00,46.4,39.2,30.68,SW,229,0.0,-999.9,76,-99.99,,,-99.99,,2013-04-18 09:06:00,
2013-04-18 05:12:00,46.4,39.2,30.67,NNE,32,0.0,-999.9,76,-99.99,,,-99.99,,2013-04-18 09:12:00,
2013-04-18 05:18:00,46.4,39.2,30.67,NNE,32,0.0,-999.9,76,-99.99,,,-99.99,,2013-04-18 09:18:00,
2013-04-18 05:24:00,46.4,37.4,30.67,North,0,0.0,-999.9,71,-99.99,,,-99.99,,2013-04-18 09:24:00,
2013-04-18 05:30:00,46.4,37.4,30.67,North,0,0.0,-999.9,71,-99.99,,,-99.99,,2013-04-18 09:30:00,
2013-04-18 05:36:00,46.4,37.4,30.67,North,0,0.0,-999.9,71,-99.99,,,-99.99,,2013-04-18 09:36:00,
2013-04-18 05:42:00,48.2,39.2,30.67,North,0,0.0,-999.9,71,-99.99,,,-99.99,,2013-04-18 09:42:00,
2013-04-18 05:48:00,48.2,39.2,30.67,North,0,0.0,-999.9,71,-99.99,,,-99.99,,2013-04-18 09:48:00,
2013-04-18 05:54:00,48.2,39.2,30.68,North,0,0.0,-999.9,71,-99.99,,,-99.99,,2013-04-18 09:54:00,
2013-04-18 06:00:00,48.2,39.2,30.68,North,0,0.0,-999.9,71,-99.99,,,-99.99,,2013-04-18 10:00:00,
2013-04-18 06:12:00,48.2,39.2,30.68,North,0,0.0,-999.9,71,-99.99,,,-99.99,,2013-04-18 10:12:00,
2013-04-18 06:18:00,48.2,39.2,30.68,North,0,0.0,-999.9,71,-99.99,,,-99.99,,2013-04-18 10:18:00,
2013-04-18 06:24:00,46.4,39.2,30.68,North,0,0.0,-999.9,76,-99.99,,,-99.99,,2013-04-18 10:24:00,
2013-04-18 06:30:00,46.4,39.2,30.68,North,0,0.0,-999.9,76,-99.99,,,-99.99,,2013-04-18 10:30:00,
2013-04-18 06:36:00,46.4,39.2,30.69,North,0,0.0,-999.9,76,-99.99,,,-99.99,,2013-04-18 10:36:00,
2013-04-18 06:42:00,48.2,41.0,30.69,North,0,0.0,-999.9,76,-99.99,,,-99.99,,2013-04-18 10:42:00,
2013-04-18 06:48:00,48.2,41.0,30.69,North,0,0.0,-999.9,76,-99.99,,,-99.99,,2013-04-18 10:48:00,
2013-04-18 06:54:00,48.2,41.0,30.70,North,0,0.0,-999.9,76,-99.99,,,-99.99,,2013-04-18 10:54:00,
2013-04-18 07:00:00,48.2,41.0,30.70,North,0,0.0,-999.9,76,-99.99,,,-99.99,,2013-04-18 11:00:00,
2013-04-18 07:06:00,48.2,41.0,30.70,North,0,0.0,-999.9,76,-99.99,,,-99.99,,2013-04-18 11:06:00,
2013-04-18 07:14:00,48.2,41.0,30.70,North,0,0.0,-999.9,76,-99.99,,,-99.99,,2013-04-18 11:14:00,
2013-04-18 07:20:00,48.2,41.0,30.70,South,176,1.2,-999.9,76,-99.99,,,-99.99,,2013-04-18 11:20:00,
2013-04-18 07:26:00,48.2,41.0,30.70,South,176,1.2,-999.9,76,-99.99,,,-99.99,,2013-04-18 11:26:00,
2013-04-18 07:32:00,50.0,42.8,30.70,North,0,0.0,-999.9,76,-99.99,,,-99.99,,2013-04-18 11:32:00,
2013-04-18 07:38:00,50.0,42.8,30.70,North,0,0.0,-999.9,76,-99.99,,,-99.99,,2013-04-18 11:38:00,
2013-04-18 07:44:00,50.0,42.8,30.70,North,0,0.0,-999.9,76,-99.99,,,-99.99,,2013-04-18 11:44:00,
2013-04-18 07:50:00,50.0,42.8,30.70,North,0,0.0,-999.9,76,-99.99,,,-99.99,,2013-04-18 11:50:00,
2013-04-18 08:02:00,51.8,42.8,30.69,ENE,70,1.2,-999.9,71,-99.99,,,-99.99,,2013-04-18 12:02:00,
2013-04-18 08:08:00,51.8,42.8,30.69,ENE,70,1.2,-999.9,71,-99.99,,,-99.99,,2013-04-18 12:08:00,
2013-04-18 08:14:00,53.6,42.8,30.69,East,100,3.5,-999.9,67,-99.99,,,-99.99,,2013-04-18 12:14:00,
2013-04-18 08:20:00,53.6,42.8,30.69,East,100,3.5,-999.9,67,-99.99,,,-99.99,,2013-04-18 12:20:00,
2013-04-18 08:26:00,53.6,42.8,30.68,ENE,68,2.3,-999.9,67,-99.99,,,-99.99,,2013-04-18 12:26:00,
2013-04-18 08:32:00,53.6,42.8,30.69,SE,144,1.2,-999.9,67,-99.99,,,-99.99,,2013-04-18 12:32:00,
2013-04-18 08:38:00,53.6,42.8,30.69,SE,144,1.2,-999.9,67,-99.99,,,-99.99,,2013-04-18 12:38:00,
2013-04-18 08:52:00,55.4,41.0,30.68,SSE,150,8.1,-999.9,58,-99.99,,,-99.99,,2013-04-18 12:52:00,
2013-04-18 08:58:00,55.4,41.0,30.68,SSE,150,8.1,-999.9,58,-99.99,,,-99.99,,2013-04-18 12:58:00,
2013-04-18 09:04:00,55.4,42.8,30.68,SSE,163,4.6,-999.9,63,-99.99,,,-99.99,,2013-04-18 13:04:00,
2013-04-18 09:10:00,55.4,42.8,30.68,SSE,163,4.6,-999.9,63,-99.99,,,-99.99,,2013-04-18 13:10:00,
2013-04-18 09:16:00,55.4,42.8,30.68,ESE,117,1.2,-999.9,63,-99.99,,,-99.99,,2013-04-18 13:16:00,
2013-04-18 09:22:00,55.4,41.0,30.68,SE,141,3.5,-999.9,58,-99.99,,,-99.99,,2013-04-18 13:22:00,
2013-04-18 09:28:00,55.4,41.0,30.68,SE,141,3.5,-999.9,58,-99.99,,,-99.99,,2013-04-18 13:28:00,
2013-04-18 09:34:00,55.4,41.0,30.68,SSE,148,2.3,-999.9,58,-99.99,,,-99.99,,2013-04-18 13:34:00,
2013-04-18 09:40:00,55.4,41.0,30.68,SSE,148,2.3,-999.9,58,-99.99,,,-99.99,,2013-04-18 13:40:00,
2013-04-18 09:46:00,55.4,41.0,30.68,South,178,8.1,-999.9,58,-99.99,,,-99.99,,2013-04-18 13:46:00,
2013-04-18 09:54:00,57.2,41.0,30.68,ESE,112,3.5,-999.9,55,-99.99,,,-99.99,,2013-04-18 13:54:00,
2013-04-18 10:00:00,57.2,41.0,30.68,ESE,112,3.5,-999.9,55,-99.99,,,-99.99,,2013-04-18 14:00:00,
2013-04-18 10:22:00,59.0,35.6,30.68,South,177,4.6,-999.9,42,-99.99,,,-99.99,,2013-04-18 14:22:00,
2013-04-18 10:28:00,59.0,35.6,30.68,South,177,4.6,-999.9,42,-99.99,,,-99.99,,2013-04-18 14:28:00,
2013-04-18 10:34:00,59.0,33.8,30.68,SSE,159,10.4,-999.9,39,-99.99,,,-99.99,,2013-04-18 14:34:00,
2013-04-18 10:40:00,59.0,33.8,30.68,SSE,159,10.4,-999.9,39,-99.99,,,-99.99,,2013-04-18 14:40:00,
2013-04-18 10:46:00,60.8,35.6,30.68,SSE,161,6.9,-999.9,39,-99.99,,,-99.99,,2013-04-18 14:46:00,
2013-04-18 10:52:00,60.8,33.8,30.68,South,171,8.1,-999.9,36,-99.99,,,-99.99,,2013-04-18 14:52:00,
2013-04-18 10:58:00,60.8,33.8,30.68,South,171,8.1,-999.9,36,-99.99,,,-99.99,,2013-04-18 14:58:00,
2013-04-18 11:12:00,60.8,33.8,30.68,South,181,5.8,-999.9,36,-99.99,,,-99.99,,2013-04-18 15:12:00,
2013-04-18 11:18:00,60.8,33.8,30.68,South,181,5.8,-999.9,36,-99.99,,,-99.99,,2013-04-18 15:18:00,
2013-04-18 11:24:00,60.8,32.0,30.68,SSE,161,11.5,-999.9,34,-99.99,,,-99.99,,2013-04-18 15:24:00,
2013-04-18 11:30:00,60.8,32.0,30.68,SSE,161,11.5,-999.9,34,-99.99,,,-99.99,,2013-04-18 15:30:00,
2013-04-18 11:36:00,60.8,32.0,30.68,SSE,158,11.5,-999.9,34,-99.99,,,-99.99,,2013-04-18 15:36:00,
2013-04-18 11:42:00,60.8,32.0,30.68,South,178,5.8,-999.9,34,-99.99,,,-99.99,,2013-04-18 15:42:00,
2013-04-18 11:48:00,60.8,32.0,30.68,South,178,5.8,-999.9,34,-99.99,,,-99.99,,2013-04-18 15:48:00,
2013-04-18 11:54:00,60.8,33.8,30.68,South,191,6.9,-999.9,36,-99.99,,,-99.99,,2013-04-18 15:54:00,
2013-04-18 12:00:00,60.8,33.8,30.68,South,191,6.9,-999.9,36,-99.99,,,-99.99,,2013-04-18 16:00:00,
2013-04-18 12:12:00,60.8,33.8,30.66,SE,142,8.1,-999.9,36,-99.99,,,-99.99,,2013-04-18 16:12:00,
2013-04-18 12:18:00,60.8,33.8,30.66,SE,142,8.1,-999.9,36,-99.99,,,-99.99,,2013-04-18 16:18:00,
2013-04-18 12:24:00,60.8,35.6,30.66,SSE,161,9.2,-999.9,39,-99.99,,,-99.99,,2013-04-18 16:24:00,
2013-04-18 12:30:00,60.8,35.6,30.66,SSE,161,9.2,-999.9,39,-99.99,,,-99.99,,2013-04-18 16:30:00,
2013-04-18 12:36:00,60.8,35.6,30.66,South,184,12.7,-999.9,39,-99.99,,,-99.99,,2013-04-18 16:36:00,
2013-04-18 12:42:00,59.0,35.6,30.66,South,181,12.7,-999.9,42,-99.99,,,-99.99,,2013-04-18 16:42:00,
2013-04-18 12:48:00,59.0,35.6,30.66,South,181,12.7,-999.9,42,-99.99,,,-99.99,,2013-04-18 16:48:00,
2013-04-18 12:54:00,59.0,37.4,30.66,South,180,12.7,-999.9,45,-99.99,,,-99.99,,2013-04-18 16:54:00,
2013-04-18 13:00:00,59.0,37.4,30.66,South,180,12.7,-999.9,45,-99.99,,,-99.99,,2013-04-18 17:00:00,
2013-04-18 13:06:00,59.0,37.4,30.66,South,175,18.4,-999.9,45,-99.99,,,-99.99,,2013-04-18 17:06:00,
2013-04-18 13:12:00,59.0,37.4,30.65,SSW,194,8.1,-999.9,45,-99.99,,,-99.99,,2013-04-18 17:12:00,
2013-04-18 13:18:00,59.0,37.4,30.65,SSW,194,8.1,-999.9,45,-99.99,,,-99.99,,2013-04-18 17:18:00,
2013-04-18 13:24:00,59.0,39.2,30.65,South,175,15.0,-999.9,48,-99.99,,,-99.99,,2013-04-18 17:24:00,
2013-04-18 13:30:00,59.0,39.2,30.65,South,175,15.0,-999.9,48,-99.99,,,-99.99,,2013-04-18 17:30:00,
2013-04-18 13:36:00,59.0,41.0,30.64,South,179,6.9,-999.9,51,-99.99,,,-99.99,,2013-04-18 17:36:00,
2013-04-18 13:42:00,59.0,41.0,30.64,South,180,9.2,-999.9,51,-99.99,,,-99.99,,2013-04-18 17:42:00,
2013-04-18 13:48:00,59.0,41.0,30.64,South,180,9.2,-999.9,51,-99.99,,,-99.99,,2013-04-18 17:48:00,
2013-04-18 13:54:00,59.0,42.8,30.64,South,175,6.9,-999.9,55,-99.99,,,-99.99,,2013-04-18 17:54:00,
2013-04-18 14:00:00,59.0,42.8,30.64,South,175,6.9,-999.9,55,-99.99,,,-99.99,,2013-04-18 18:00:00,
2013-04-18 14:06:00,59.0,42.8,30.63,SSE,165,10.4,-999.9,55,-99.99,,,-99.99,,2013-04-18 18:06:00,
2013-04-18 14:12:00,59.0,42.8,30.64,South,178,11.5,-999.9,55,-99.99,,,-99.99,,2013-04-18 18:12:00,
2013-04-18 14:18:00,59.0,42.8,30.64,South,178,11.5,-999.9,55,-99.99,,,-99.99,,2013-04-18 18:18:00,
2013-04-18 14:24:00,57.2,42.8,30.63,South,174,9.2,-999.9,59,-99.99,,,-99.99,,2013-04-18 18:24:00,
2013-04-18 14:30:00,57.2,42.8,30.63,South,174,9.2,-999.9,59,-99.99,,,-99.99,,2013-04-18 18:30:00,
2013-04-18 14:36:00,57.2,42.8,30.63,South,174,6.9,-999.9,59,-99.99,,,-99.99,,2013-04-18 18:36:00,
2013-04-18 14:42:00,57.2,42.8,30.63,SSE,152,9.2,-999.9,59,-99.99,,,-99.99,,2013-04-18 18:42:00,
2013-04-18 14:48:00,57.2,42.8,30.63,SSE,152,9.2,-999.9,59,-99.99,,,-99.99,,2013-04-18 18:48:00,
2013-04-18 14:54:00,57.2,42.8,30.62,SSE,168,10.4,-999.9,59,-99.99,,,-99.99,,2013-04-18 18:54:00,
2013-04-18 15:00:00,57.2,42.8,30.62,SSE,168,10.4,-999.9,59,-99.99,,,-99.99,,2013-04-18 19:00:00,
2013-04-18 15:12:00,57.2,44.6,30.62,South,172,8.1,-999.9,63,-99.99,,,-99.99,,2013-04-18 19:12:00,
2013-04-18 15:18:00,57.2,44.6,30.62,South,172,8.1,-999.9,63,-99.99,,,-99.99,,2013-04-18 19:18:00,
2013-04-18 15:24:00,57.2,44.6,30.62,South,189,15.0,-999.9,63,-99.99,,,-99.99,,2013-04-18 19:24:00,
2013-04-18 15:30:00,57.2,44.6,30.62,South,189,15.0,-999.9,63,-99.99,,,-99.99,,2013-04-18 19:30:00,
2013-04-18 15:42:00,55.4,46.4,30.62,South,179,9.2,-999.9,72,-99.99,,,-99.99,,2013-04-18 19:42:00,
2013-04-18 15:48:00,55.4,46.4,30.62,South,179,9.2,-999.9,72,-99.99,,,-99.99,,2013-04-18 19:48:00,
2013-04-18 15:54:00,53.6,48.2,30.62,SSE,162,3.5,-999.9,82,-99.99,,,-99.99,,2013-04-18 19:54:00,
2013-04-18 16:00:00,53.6,48.2,30.62,SSE,162,3.5,-999.9,82,-99.99,,,-99.99,,2013-04-18 20:00:00,
2013-04-18 16:06:00,53.6,50.0,30.61,South,176,4.6,-999.9,88,-99.99,,,-99.99,,2013-04-18 20:06:00,
2013-04-18 16:12:00,53.6,50.0,30.60,SSW,211,3.5,-999.9,88,-99.99,,,-99.99,,2013-04-18 20:12:00,
2013-04-18 16:18:00,53.6,50.0,30.60,SSW,211,3.5,-999.9,88,-99.99,,,-99.99,,2013-04-18 20:18:00,
2013-04-18 16:24:00,53.6,50.0,30.60,SSE,168,3.5,-999.9,88,-99.99,,,-99.99,,2013-04-18 20:24:00,
2013-04-18 16:30:00,53.6,50.0,30.60,SSE,168,3.5,-999.9,88,-99.99,,,-99.99,,2013-04-18 20:30:00,
2013-04-18 16:36:00,53.6,50.0,30.60,South,171,6.9,-999.9,88,-99.99,,,-99.99,,2013-04-18 20:36:00,
2013-04-18 16:42:00,53.6,50.0,30.60,South,179,4.6,-999.9,88,-99.99,,,-99.99,,2013-04-18 20:42:00,
2013-04-18 16:48:00,53.6,50.0,30.60,South,179,4.6,-999.9,88,-99.99,,,-99.99,,2013-04-18 20:48:00,
2013-04-18 16:54:00,53.6,50.0,30.59,SSE,167,3.5,-999.9,88,-99.99,,,-99.99,,2013-04-18 20:54:00,
2013-04-18 17:00:00,53.6,50.0,30.59,SSE,167,3.5,-999.9,88,-99.99,,,-99.99,,2013-04-18 21:00:00,
2013-04-18 17:06:00,53.6,50.0,30.59,South,179,4.6,-999.9,88,-99.99,,,-99.99,,2013-04-18 21:06:00,
2013-04-18 17:12:00,53.6,50.0,30.60,SSE,151,5.8,-999.9,88,-99.99,,,-99.99,,2013-04-18 21:12:00,
2013-04-18 17:18:00,53.6,50.0,30.60,SSE,151,5.8,-999.9,88,-99.99,,,-99.99,,2013-04-18 21:18:00,
2013-04-18 17:24:00,53.6,50.0,30.59,SSW,206,2.3,-999.9,88,-99.99,,,-99.99,,2013-04-18 21:24:00,
2013-04-18 17:30:00,53.6,50.0,30.59,SSW,206,2.3,-999.9,88,-99.99,,,-99.99,,2013-04-18 21:30:00,
2013-04-18 17:36:00,53.6,50.0,30.59,SSW,192,3.5,-999.9,88,-99.99,,,-99.99,,2013-04-18 21:36:00,
2013-04-18 17:42:00,53.6,50.0,30.58,South,183,4.6,-999.9,88,-99.99,,,-99.99,,2013-04-18 21:42:00,
2013-04-18 17:48:00,53.6,50.0,30.58,South,183,4.6,-999.9,88,-99.99,,,-99.99,,2013-04-18 21:48:00,
2013-04-18 17:54:00,53.6,50.0,30.58,SSE,165,3.5,-999.9,88,-99.99,,,-99.99,,2013-04-18 21:54:00,
2013-04-18 18:00:00,53.6,50.0,30.58,SSE,165,3.5,-999.9,88,-99.99,,,-99.99,,2013-04-18 22:00:00,
2013-04-18 18:12:00,53.6,50.0,30.58,South,176,0.0,-999.9,88,-99.99,,,-99.99,,2013-04-18 22:12:00,
2013-04-18 18:18:00,53.6,50.0,30.58,South,176,0.0,-999.9,88,-99.99,,,-99.99,,2013-04-18 22:18:00,
2013-04-18 18:24:00,53.6,50.0,30.58,SE,145,1.2,-999.9,88,-99.99,,,-99.99,,2013-04-18 22:24:00,
2013-04-18 18:30:00,53.6,50.0,30.58,SE,145,1.2,-999.9,88,-99.99,,,-99.99,,2013-04-18 22:30:00,
2013-04-18 18:36:00,53.6,50.0,30.57,SSE,163,4.6,-999.9,88,-99.99,,,-99.99,,2013-04-18 22:36:00,
2013-04-18 18:42:00,53.6,50.0,30.56,South,182,2.3,-999.9,88,-99.99,,,-99.99,,2013-04-18 22:42:00,
2013-04-18 18:48:00,53.6,50.0,30.56,South,182,2.3,-999.9,88,-99.99,,,-99.99,,2013-04-18 22:48:00,
2013-04-18 18:54:00,53.6,50.0,30.56,South,182,5.8,-999.9,88,-99.99,,,-99.99,,2013-04-18 22:54:00,
2013-04-18 19:00:00,53.6,50.0,30.56,South,182,5.8,-999.9,88,-99.99,,,-99.99,,2013-04-18 23:00:00,
2013-04-18 19:06:00,53.6,50.0,30.55,South,173,3.5,-999.9,88,-99.99,,,-99.99,,2013-04-18 23:06:00,
2013-04-18 19:12:00,53.6,50.0,30.55,SSE,155,5.8,-999.9,88,-99.99,,,-99.99,,2013-04-18 23:12:00,
2013-04-18 19:18:00,53.6,50.0,30.55,SSE,155,5.8,-999.9,88,-99.99,,,-99.99,,2013-04-18 23:18:00,
2013-04-18 19:24:00,53.6,50.0,30.55,SSW,201,2.3,-999.9,88,-99.99,,,-99.99,,2013-04-18 23:24:00,
2013-04-18 19:30:00,53.6,50.0,30.55,SSW,201,2.3,-999.9,88,-99.99,,,-99.99,,2013-04-18 23:30:00,
2013-04-18 19:36:00,53.6,50.0,30.55,SSE,150,0.0,-999.9,88,-99.99,,,-99.99,,2013-04-18 23:36:00,
2013-04-18 19:42:00,53.6,50.0,30.55,SE,142,1.2,-999.9,88,-99.99,,,-99.99,,2013-04-18 23:42:00,
2013-04-18 19:48:00,53.6,50.0,30.55,SE,142,1.2,-999.9,88,-99.99,,,-99.99,,2013-04-18 23:48:00,
2013-04-18 19:54:00,53.6,50.0,30.55,SSW,211,3.5,-999.9,88,-99.99,,,-99.99,,2013-04-18 23:54:00,
2013-04-18 20:00:00,53.6,50.0,30.55,SSW,211,3.5,-999.9,88,-99.99,,,-99.99,,2013-04-19 00:00:00,
2013-04-18 20:06:00,53.6,50.0,30.55,South,188,1.2,-999.9,88,-99.99,,,-99.99,,2013-04-19 00:06:00,
2013-04-18 20:12:00,53.6,50.0,30.54,SSE,159,3.5,-999.9,88,-99.99,,,-99.99,,2013-04-19 00:12:00,
2013-04-18 20:18:00,53.6,50.0,30.54,SSE,159,3.5,-999.9,88,-99.99,,,-99.99,,2013-04-19 00:18:00,
2013-04-18 21:22:00,53.6,50.0,30.52,SSE,161,1.2,-999.9,88,-99.99,,,-99.99,,2013-04-19 01:22:00,
2013-04-18 21:28:00,53.6,50.0,30.52,SSE,161,1.2,-999.9,88,-99.99,,,-99.99,,2013-04-19 01:28:00,
2013-04-18 21:34:00,53.6,50.0,30.51,South,173,4.6,-999.9,88,-99.99,,,-99.99,,2013-04-19 01:34:00,
2013-04-18 21:40:00,53.6,50.0,30.51,South,173,4.6,-999.9,88,-99.99,,,-99.99,,2013-04-19 01:40:00,
2013-04-18 21:46:00,53.6,50.0,30.51,South,186,3.5,-999.9,88,-99.99,,,-99.99,,2013-04-19 01:46:00,
2013-04-18 21:52:00,55.4,51.8,30.51,South,171,4.6,-999.9,88,-99.99,,,-99.99,,2013-04-19 01:52:00,
2013-04-18 21:58:00,55.4,51.8,30.51,South,171,4.6,-999.9,88,-99.99,,,-99.99,,2013-04-19 01:58:00,
2013-04-18 22:04:00,55.4,51.8,30.51,South,181,2.3,-999.9,88,-99.99,,,-99.99,,2013-04-19 02:04:00,
2013-04-18 22:10:00,55.4,51.8,30.51,South,181,2.3,-999.9,88,-99.99,,,-99.99,,2013-04-19 02:10:00,
2013-04-18 22:16:00,55.4,51.8,30.50,SSW,194,6.9,-999.9,88,-99.99,,,-99.99,,2013-04-19 02:16:00,
2013-04-18 22:22:00,55.4,53.6,30.50,SSE,168,6.9,-999.9,94,-99.99,,,-99.99,,2013-04-19 02:22:00,
2013-04-18 22:28:00,55.4,53.6,30.50,SSE,168,6.9,-999.9,94,-99.99,,,-99.99,,2013-04-19 02:28:00,
2013-04-18 22:34:00,55.4,53.6,30.50,SSE,164,4.6,-999.9,94,-99.99,,,-99.99,,2013-04-19 02:34:00,
2013-04-18 22:40:00,55.4,53.6,30.50,SSE,164,4.6,-999.9,94,-99.99,,,-99.99,,2013-04-19 02:40:00,
2013-04-18 22:46:00,55.4,53.6,30.49,South,185,2.3,-999.9,94,-99.99,,,-99.99,,2013-04-19 02:46:00,
2013-04-18 22:52:00,53.6,51.8,30.49,SSW,200,2.3,-999.9,94,-99.99,,,-99.99,,2013-04-19 02:52:00,
2013-04-18 22:58:00,53.6,51.8,30.49,SSW,200,2.3,-999.9,94,-99.99,,,-99.99,,2013-04-19 02:58:00,
2013-04-18 23:04:00,53.6,51.8,30.48,SSE,160,3.5,-999.9,94,-99.99,,,-99.99,,2013-04-19 03:04:00,
2013-04-18 23:10:00,53.6,51.8,30.48,SSE,160,3.5,-999.9,94,-99.99,,,-99.99,,2013-04-19 03:10:00,
2013-04-18 23:16:00,55.4,53.6,30.48,SSE,158,3.5,-999.9,94,-99.99,,,-99.99,,2013-04-19 03:16:00,
2013-04-18 23:22:00,55.4,53.6,30.47,SSE,156,4.6,-999.9,94,-99.99,,,-99.99,,2013-04-19 03:22:00,
2013-04-18 23:28:00,55.4,53.6,30.47,SSE,156,4.6,-999.9,94,-99.99,,,-99.99,,2013-04-19 03:28:00,
2013-04-18 23:34:00,55.4,53.6,30.47,SSW,206,2.3,-999.9,94,-99.99,,,-99.99,,2013-04-19 03:34:00,
2013-04-18 23:40:00,55.4,53.6,30.47,SSW,206,2.3,-999.9,94,-99.99,,,-99.99,,2013-04-19 03:40:00,
2013-04-18 23:46:00,55.4,53.6,30.47,South,188,1.2,-999.9,94,-99.99,,,-99.99,,2013-04-19 03:46:00,
2013-04-18 23:52:00,55.4,53.6,30.46,South,173,2.3,-999.9,94,-99.99,,,-99.99,,2013-04-19 03:52:00,
2013-04-18 23:58:00,55.4,53.6,30.46,South,173,2.3,-999.9,94,-99.99,,,-99.99,,2013-04-19 03:58:00,